Карточка аэропорта UWKE

Внимание!
Информация на этой странице в стадии наполнения.
Если вы не увидели какой-то информации, или заметили неточность - пожалуйста сообщите нам!
Спасибо!
Команда RU-STAFF
Название аэропортаБегишево
Название аэропорта (англ.)Begishevo
Превышение643 ft. (196 m.)
Координаты55°33.882', 52°5.5500000000001'
Высота перехода700m
Эшелон переходаQFE>=742mm:FL040; QFE<742=>715:FL050; QFE<715:FL060
Коды ответчика1000
Зона ОрВДСамара РПИ (UWWW)
Данные METARUWKE 270430Z 24011MPS 9999 DRSN NSC M05/M10 Q1017 R21/320045 NOSIG RMK QFE746/0995
Проноз погоды (TAF)UWKE 270200Z 2703/2803 23007G14MPS 9999 DRSN BKN011 TEMPO 2703/2706 27005G12MPS 0700 +SN FZRA OVC003
NOTAMshow/hide NOTAM
AWOS   TABLE

Информация о ВПП

ВПП Длина ВПП (м.) Покрытие Курс ВПП Частота ILS
032502Асфальтобетон34 
212502Асфальтобетон214109.9

Диспетчерские позиции

Позывной Наименование органа УВД Частота
UWKE_TWRБегишево-Вышка121.200
UWKE_R_APPБегишево-Круг127.900



Спутниковое изображение